TimeCDT,TemperatureF,Dew PointF,Humidity,Sea Level PressureIn,VisibilityMPH,Wind Direction,Wind SpeedMPH,Gust SpeedMPH,PrecipitationIn,Events,Conditions,WindDirDegrees,DateUTC
12:54 AM,46.9,30.9,54,30.12,10.0,South,6.9,-,N/A,,Clear,170,2013-05-06 05:54:00
1:54 AM,48.9,30.0,48,30.12,10.0,South,9.2,-,N/A,,Clear,180,2013-05-06 06:54:00
2:54 AM,48.0,30.0,50,30.10,10.0,WSW,8.1,-,N/A,,Clear,240,2013-05-06 07:54:00
3:54 AM,48.0,28.9,48,30.09,10.0,SW,10.4,-,N/A,,Clear,220,2013-05-06 08:54:00
4:54 AM,48.0,28.0,46,30.08,10.0,SW,9.2,-,N/A,,Clear,220,2013-05-06 09:54:00
5:54 AM,46.9,28.0,48,30.08,10.0,SW,10.4,-,N/A,,Clear,230,2013-05-06 10:54:00
6:54 AM,46.9,28.0,48,30.09,10.0,SW,10.4,-,N/A,,Clear,230,2013-05-06 11:54:00
7:54 AM,50.0,28.9,44,30.09,10.0,SSW,9.2,-,N/A,,Clear,210,2013-05-06 12:54:00
8:54 AM,57.0,30.0,36,30.09,10.0,SW,5.8,-,N/A,,Clear,230,2013-05-06 13:54:00
9:54 AM,64.0,28.9,27,30.09,10.0,West,9.2,-,N/A,,Clear,260,2013-05-06 14:54:00
10:54 AM,66.9,28.0,23,30.09,10.0,WSW,6.9,-,N/A,,Clear,250,2013-05-06 15:54:00
11:54 AM,66.9,26.1,21,30.08,10.0,SW,3.5,-,N/A,,Clear,230,2013-05-06 16:54:00
12:54 PM,70.0,27.0,20,30.07,10.0,Variable,3.5,-,N/A,,Clear,0,2013-05-06 17:54:00
1:54 PM,71.1,26.1,19,30.06,10.0,East,6.9,-,N/A,,Clear,80,2013-05-06 18:54:00
2:54 PM,72.0,25.0,17,30.04,10.0,North,4.6,-,N/A,,Clear,10,2013-05-06 19:54:00
3:54 PM,72.0,26.1,18,30.02,10.0,Variable,5.8,-,N/A,,Clear,0,2013-05-06 20:54:00
4:54 PM,72.0,26.1,18,30.00,10.0,Variable,4.6,-,N/A,,Clear,0,2013-05-06 21:54:00
5:54 PM,72.0,25.0,17,29.99,10.0,SSW,4.6,-,N/A,,Clear,210,2013-05-06 22:54:00
6:54 PM,72.0,26.1,18,29.98,10.0,Calm,Calm,-,N/A,,Clear,0,2013-05-06 23:54:00
7:54 PM,70.0,28.0,21,29.97,10.0,ESE,6.9,-,N/A,,Clear,120,2013-05-07 00:54:00
8:54 PM,64.9,26.1,23,29.97,10.0,ESE,3.5,-,N/A,,Clear,120,2013-05-07 01:54:00
9:54 PM,59.0,30.9,35,29.99,10.0,SE,6.9,-,N/A,,Clear,130,2013-05-07 02:54:00
10:54 PM,55.0,32.0,42,29.99,10.0,SE,5.8,-,N/A,,Clear,140,2013-05-07 03:54:00
11:54 PM,53.1,33.1,47,29.99,10.0,SSE,4.6,-,N/A,,Clear,150,2013-05-07 04:54:00